Tracking 19709 objects as of 19-Jun-2019
HD Live streaming from Space Station
objects crossing your sky now

DELTA 1 DEB

Track DELTA 1 DEB now!
10-day predictions


NORAD ID: 42586
Int'l Code: 1973-086JA
Perigee: 1,508.5 km
Apogee: 1,559.8 km
Inclination: 102.2 °
Period: 116.6 minutes
Semi major axis: 7905 km
RCS: Unknown
Launch date: November 6, 1973
Source: United States (US)
Launch site: AIR FORCE WESTERN TEST RANGE (AFWTR)

Note: This is SATELLITE DEBRIS
aabbcc
Your satellite tracking list
Your tracking list is empty




NASA's NSSDC Master Catalog

Two Line Element Set (TLE):
1 42586U 73086JA  19164.79648244 -.00000006  00000-0  31147-3 0  9990
2 42586 102.2337 137.0104 0032461 118.5518 358.6286 12.35197405633586
Source of the keplerian elements: AFSPC